Volver al catálogo

QIANFAN-42

ActivoComunicacionesPO
NORAD 62243·PAYLOAD·🇨🇳 China

Lanzado Dec 5, 2024 desde Taiyuan Satellite Launch Center

Loading…

Próximos Pases (próximas 24 horas)

TLE

ActualizadoSource: Space-Track

Época: Sep 14, 2026, 12:57 UTC

1 62243U 24232G   26257.53993595  .00000349  00000-0  14380-3 0  9995
2 62243  89.0138   6.0052 0012746 259.3300 100.6457 14.24645556140632

Sigue QIANFAN-42 en tiempo real con AllMySat

Download on the App Store